Helicity
78 71 73 61 62 61 66 81 75 50 53 55 55 53 51 48 44 49 51 52 56 71 84 91 92 98 117
84 87 77 70 70 84 81 90 90 87 71 64 60 57 53 50 50 48 51 54 55 64 89 100 107 107 90
110 100 96 94 95 79 80 82 94 99 82 61 57 59 59 54 52 55 58 57 60 63 75 100 106 115 113
156 141 113 121 132 117 109 104 110 103 91 70 93 92 77 65 58 70 77 63 61 64 71 85 117 130 132
146 129 117 107 124 100 126 116 107 107 114 100 91 94 99 70 77 75 81 64 63 68 77 88 100 117 126
123 105 88 85 106 127 115 120 132 66 79 111 105 112 103 105 102 104 84 61 59 63 69 77 99 111 111
125 117 109 96 79 83 62 72 73 68 53 87 93 116 97 98 102 94 80 73 64 61 62 65 76 90 108
87 96 89 85 86 81 76 75 62 51 63 71 57 97 101 94 88 85 83 75 66 66 58 64 70 77 85
46 42 41 50 66 88 100 93 87 66 92 74 57 69 80 86 87 86 96 86 72 55 54 64 69 74 88
66 44 37 45 40 67 70 84 92 91 89 121 90 73 48 78 82 80 76 82 71 62 54 62 72 93 95
61 61 65 31 43 46 59 73 77 103 109 105 123 114 115 81 84 83 85 81 93 89 65 53 58 68 98
70 70 60 43 51 51 36 37 67 53 61 70 79 112 124 112 89 92 87 89 109 123 116 83 38 39 59
70 64 69 60 59 21 28 46 65 60 44 61 106 97 102 104 102 101 99 101 118 133 122 111 110 124 111
87 82 72 63 43 72 62 24 50 38 9 34 43 72 90 86 85 91 109 112 107 133 146 148 146 147 128
81 67 59 57 54 53 62 71 51 47 46 30 36 45 67 89 76 76 91 108 98 120 136 134 124 122 121
64 58 46 39 35 32 34 44 35 36 37 47 22 38 39 37 35 72 78 85 102 107 118 123 115 99 100
51 53 47 39 27 35 31 51 44 51 42 47 39 11 23 43 44 -21 68 79 106 99 92 95 94 81 77
Wind_Speed
82 80 80 78 74 71 70 69 69 65 63 63 61 58 54 51 49 50 48 46 45 45 46 45 45 43 36
89 87 84 81 80 80 78 74 74 71 68 68 66 63 60 54 50 46 44 45 43 41 39 41 41 41 39
96 89 88 84 85 79 80 78 75 76 74 72 71 69 66 62 57 49 44 42 42 40 39 37 35 36 35
92 91 89 86 84 86 87 78 80 74 73 74 73 67 65 63 60 52 47 43 41 39 38 37 35 33 32
95 94 92 89 88 83 84 86 83 78 80 78 74 69 65 64 62 54 50 47 44 41 39 37 34 33 31
96 95 93 88 84 86 87 88 90 66 70 72 65 69 65 63 60 57 51 49 47 44 40 37 36 34 31
88 87 89 84 83 85 83 82 85 76 73 83 70 75 69 61 56 54 55 52 50 48 45 40 38 36 34
76 81 80 80 79 80 79 77 76 74 68 82 68 71 67 63 60 58 57 57 55 52 50 46 43 40 38
80 81 81 78 77 78 79 82 84 78 65 72 71 69 65 64 58 56 56 57 55 55 52 48 46 45 44
73 70 69 68 68 67 71 77 76 78 63 67 68 62 62 53 55 55 56 56 55 52 52 49 47 48 49
71 69 63 60 59 59 58 65 70 68 56 49 57 57 59 59 54 50 49 50 53 52 51 50 48 51 52
67 65 65 66 64 64 62 60 57 59 56 46 52 50 54 60 61 55 53 50 47 48 49 52 51 53 55
71 70 65 66 70 70 64 60 59 60 59 53 49 49 49 51 54 55 55 55 51 52 50 52 55 54 55
68 68 65 64 66 64 65 63 61 66 60 56 58 55 55 56 57 56 52 54 51 55 55 56 54 54 56
63 67 64 62 62 63 66 64 63 66 64 58 54 54 57 55 58 59 58 55 51 49 51 57 58 55 55
56 58 61 62 64 64 66 67 67 66 66 60 57 54 53 56 55 58 56 58 53 50 52 56 60 56 55
53 50 56 60 62 62 64 66 67 66 64 61 58 59 63 62 49 49 53 50 50 52 53 55 58 56 54
Wind_Direction
306 307 306 305 305 305 304 303 302 301 301 300 300 300 300 300 301 302 303 306 308 309 309 311 311 310 322
303 304 303 303 302 301 301 299 297 299 298 297 296 296 295 295 295 297 299 301 303 305 308 308 308 309 306
301 301 302 302 300 300 299 297 297 296 294 294 292 291 290 290 289 289 291 294 297 299 301 303 305 307 307
300 301 300 300 299 297 296 296 295 295 295 293 291 289 287 286 286 284 284 287 290 292 294 295 297 300 303
299 299 299 299 297 297 294 295 294 293 292 291 290 287 286 283 281 279 279 280 283 284 287 289 290 292 296
298 297 297 297 299 296 295 294 292 295 292 290 291 289 287 284 280 276 274 275 276 277 278 281 284 286 288
298 297 297 297 296 294 293 291 290 292 292 286 289 286 286 284 280 277 274 272 271 272 272 273 276 278 281
298 298 297 295 294 293 292 291 291 291 290 285 289 284 286 284 280 276 273 271 269 267 267 268 270 271 273
298 297 297 298 296 293 290 288 287 286 286 285 284 285 283 281 280 278 275 271 267 264 263 263 265 267 270
303 303 303 301 299 298 296 291 291 289 291 284 283 283 282 283 281 279 276 272 268 263 261 258 261 264 266
303 305 304 306 306 302 300 299 294 292 297 294 290 284 280 281 281 282 282 276 268 264 260 257 258 261 264
303 304 303 303 302 302 302 299 300 296 298 295 292 286 285 282 278 280 278 277 274 267 263 260 257 261 262
301 302 304 304 300 297 297 298 298 296 296 292 290 287 285 285 284 280 277 274 272 268 266 264 261 261 261
303 304 305 306 303 299 293 293 293 292 293 291 287 283 283 281 280 280 278 274 274 268 267 266 265 264 264
308 306 304 303 302 298 290 287 289 287 288 287 290 286 279 280 278 276 273 273 272 270 268 265 265 266 265
313 310 305 302 298 296 290 285 285 283 282 286 284 286 285 279 276 276 274 270 269 269 267 266 266 267 268
317 315 311 305 301 298 293 288 284 283 282 282 282 277 274 274 283 279 274 275 271 268 266 265 267 268 269